Temperature
26 25 24 23 22 21 21 20 20 20 20 19 19 19 19 19 19 19 19 18 18 18 18 18 18 18 18 18 18 18 18 18 18 18 18 18 18 18 18 18 18 17 17
26 25 24 24 23 22 21 21 20 20 20 20 20 19 19 19 19 19 19 18 18 18 18 18 18 18 18 18 18 18 18 18 18 18 18 18 18 18 18 18 17 17 17
26 25 25 24 23 22 21 21 21 20 20 20 20 20 19 19 19 19 19 18 18 18 18 18 18 18 18 18 18 18 18 18 18 18 18 18 18 17 17 17 17 17 17
27 26 25 24 24 23 22 21 21 21 20 20 20 20 20 19 19 19 19 18 18 18 18 18 18 18 18 18 18 18 18 18 18 18 18 18 18 17 17 17 17 16 16
28 27 26 25 24 23 22 22 21 21 21 20 20 20 20 19 19 19 19 19 18 18 18 18 18 18 18 18 18 18 18 18 18 18 18 18 18 18 17 16 16 16 16
28 27 26 25 25 24 23 22 21 21 21 21 20 20 20 20 19 19 19 19 19 18 18 18 18 18 18 18 18 18 18 18 18 18 18 18 17 17 17 16 16 16 15
29 28 27 25 25 24 23 22 22 21 21 21 20 20 20 20 19 19 19 19 19 19 19 18 18 18 18 18 18 18 18 17 18 18 17 17 17 17 17 17 16 15 15
29 28 27 26 25 24 23 23 22 22 21 21 21 20 20 20 20 19 19 19 19 19 18 18 18 18 18 17 17 17 17 17 17 17 17 17 17 17 17 17 16 15 15
29 28 27 26 25 24 24 23 22 22 21 21 21 21 21 20 20 19 19 19 19 18 18 18 18 18 18 18 17 17 17 17 17 17 17 17 17 17 17 17 16 16 15
29 28 27 26 25 24 24 23 22 22 22 21 21 21 21 20 20 19 19 19 19 18 18 18 17 17 17 17 17 17 17 17 17 17 17 17 17 17 16 16 16 16 16
29 28 27 26 25 24 24 23 22 22 22 21 21 21 20 20 20 20 19 19 19 18 18 18 17 17 17 17 17 17 17 17 16 16 16 16 16 16 16 16 16 16 15
29 28 27 26 25 24 24 23 22 22 22 21 21 21 20 20 20 19 19 19 19 18 18 18 17 17 17 17 17 17 16 16 16 16 16 16 16 16 16 16 16 15 15
29 28 27 26 26 25 24 23 22 22 21 21 21 21 20 20 20 19 19 19 18 18 18 18 17 17 17 17 16 16 16 16 16 16 16 16 16 16 15 15 15 15 15
28 28 27 26 25 25 24 23 22 22 22 21 21 21 20 20 20 19 19 18 18 18 18 18 17 17 17 16 16 16 16 16 16 16 16 16 15 15 15 15 15 15 14
27 27 26 25 25 24 24 23 22 22 22 21 21 21 20 20 19 19 19 19 18 18 18 17 17 17 17 16 16 16 16 16 16 16 16 15 15 15 15 15 14 14 14
27 26 25 25 24 24 23 23 22 22 22 21 21 20 20 20 19 19 19 18 18 18 18 17 17 17 17 16 16 16 16 16 15 15 15 15 15 15 14 14 14 14 14
26 26 25 24 24 23 23 22 22 22 21 21 20 20 20 19 19 19 19 18 18 18 17 17 17 17 17 17 16 16 16 15 15 15 15 14 14 14 14 14 14 14 13
25 25 24 24 23 23 22 22 22 21 21 20 20 20 19 19 19 19 18 18 18 18 17 17 17 17 17 16 16 16 15 15 15 15 14 14 14 14 14 14 14 13 13
25 24 24 23 23 22 22 21 21 20 20 20 20 19 19 19 19 18 18 18 18 18 17 17 17 17 16 16 16 15 15 15 15 14 14 14 14 14 14 13 13 13 13
24 23 23 23 22 22 21 21 21 20 20 20 19 19 19 19 19 18 18 18 18 17 17 16 16 16 16 16 16 15 15 14 14 14 14 14 14 14 13 13 13 13 13
23 23 22 22 22 21 21 21 20 20 20 19 19 19 19 19 18 18 18 17 17 16 16 16 16 16 16 16 15 15 15 14 14 14 14 14 14 13 13 13 13 12 12
22 22 21 21 21 21 21 20 20 20 19 19 19 18 18 18 18 17 17 17 16 16 16 16 16 15 15 15 15 15 15 14 14 14 14 13 13 13 13 13 12 12 12
21 21 21 20 20 20 20 19 19 19 19 18 18 18 18 18 17 17 17 16 16 16 16 15 15 15 15 15 15 15 14 14 14 14 13 13 13 13 13 13 12 12 12
20 20 20 19 19 19 19 19 19 18 18 18 17 17 17 17 17 17 16 16 16 16 15 15 15 15 15 15 15 14 14 14 13 13 13 13 13 13 13 12 12 12 12
20 19 19 18 18 18 18 18 18 17 17 17 17 17 16 16 16 16 16 16 16 16 16 16 15 15 15 15 15 14 14 14 13 13 13 12 12 12 12 12 12 12 12
19 18 18 18 18 17 17 17 17 17 17 16 16 16 16 16 16 16 16 16 16 16 15 15 15 15 15 15 15 14 14 14 13 13 13 13 12 12 12 12 12 12 11
Wind_Speed
13 12 11 12 12 10 9 7 6 5 3 2 1 2 1 1 2 2 3 2 1 2 1 2 1 1 0 0 1 0 1 1 2 1 1 1 2 2 2 2 2 3 5
14 13 12 12 12 11 10 8 7 6 5 3 2 1 1 1 2 2 3 3 3 2 2 1 1 1 0 0 1 0 1 1 1 1 1 1 1 2 2 3 3 3 4
16 15 14 12 12 11 11 9 8 7 6 5 3 2 1 0 1 3 3 2 2 2 2 1 1 2 1 1 1 0 1 1 1 1 1 1 1 1 1 3 3 3 3
16 16 15 13 12 12 11 9 8 7 6 5 3 3 3 2 2 2 3 2 2 2 1 2 2 2 2 2 1 1 1 1 2 1 1 0 2 2 1 2 3 3 4
16 16 15 13 13 13 12 10 9 7 6 5 4 3 2 2 3 3 4 3 2 2 1 2 2 2 1 2 2 2 1 1 1 2 1 1 1 1 1 1 1 3 3
15 15 15 13 12 12 12 12 10 8 7 6 5 3 2 2 2 2 2 2 3 2 2 3 2 1 2 2 1 2 1 1 1 2 2 1 0 1 1 2 2 2 3
14 15 15 14 13 13 12 12 11 9 8 7 5 5 4 3 2 1 1 0 2 2 2 2 2 2 2 2 2 1 2 2 1 2 2 1 1 1 2 3 2 2 2
14 14 14 14 13 13 12 12 12 10 9 8 6 5 4 3 2 1 0 1 1 2 3 2 2 2 3 3 2 2 2 2 2 2 1 1 1 1 2 2 3 3 2
15 15 15 14 14 13 12 12 12 10 9 8 7 5 4 3 2 3 2 1 1 2 3 2 2 2 2 2 2 2 3 3 2 2 3 2 1 1 1 2 3 3 3
14 15 14 14 13 13 12 12 12 10 10 9 8 7 6 5 3 2 3 2 2 3 3 2 2 2 2 3 3 2 3 3 3 2 3 2 1 1 0 1 1 2 3
13 13 13 13 14 13 13 12 12 11 10 8 7 6 7 6 5 4 3 3 2 2 2 2 2 2 3 3 3 3 3 4 3 3 4 3 3 2 2 2 2 3 4
11 13 13 13 13 14 13 12 12 11 10 9 8 6 6 6 5 5 4 4 3 2 2 2 2 2 3 3 3 3 4 4 4 4 4 3 3 3 2 2 3 3 4
9 10 12 12 12 12 12 12 12 11 11 10 9 8 7 6 5 5 4 4 3 3 2 2 2 2 3 3 3 3 4 4 4 4 4 4 4 3 2 3 3 3 4
7 8 10 10 11 11 11 11 11 11 10 10 9 8 7 7 6 5 5 4 4 4 3 2 2 2 3 3 3 3 4 4 4 4 4 4 4 3 2 3 3 3 4
8 7 8 9 10 10 11 10 10 9 9 9 9 8 7 7 6 5 5 4 4 4 3 3 2 2 3 3 3 1 4 4 4 4 5 5 6 7 4 3 3 3 3
7 7 7 9 9 10 10 10 9 9 9 9 9 9 8 8 7 6 5 5 4 4 4 3 3 3 3 5 6 4 3 3 3 3 3 4 5 6 7 7 6 5 4
6 6 6 8 8 9 9 10 9 9 9 9 8 9 9 8 7 7 6 5 5 4 4 4 4 5 4 5 6 5 2 3 3 3 2 3 4 4 3 4 5 6 5
5 5 6 7 8 8 9 9 9 9 9 9 8 8 9 8 7 7 6 5 4 4 3 4 5 5 4 4 4 4 1 3 3 3 3 4 4 4 3 3 4 4 4
4 4 4 6 7 9 9 8 9 9 8 8 8 8 8 8 8 7 6 6 5 5 4 4 4 4 3 2 2 3 1 3 3 3 4 4 4 6 6 3 4 4 3
5 5 5 6 7 8 8 9 8 8 8 8 8 8 7 7 7 7 6 6 5 5 4 4 4 5 4 2 1 1 1 3 3 3 4 6 5 5 6 2 2 3 2
5 6 5 5 5 7 8 8 7 7 6 7 7 7 7 7 8 7 6 6 5 5 4 4 4 4 5 4 2 1 0 0 2 3 3 3 4 3 3 3 1 1 1
5 5 5 5 5 6 7 7 6 5 5 6 6 7 7 7 8 7 6 6 6 5 5 4 4 4 5 4 4 3 1 1 0 1 2 3 5 2 0 0 0 0 1
4 4 5 5 5 5 5 5 5 5 5 5 6 6 6 6 7 8 7 6 5 5 5 5 5 5 5 4 5 5 3 1 1 2 4 5 5 4 2 4 3 2 2
3 4 5 4 4 4 4 4 4 5 5 5 5 6 6 6 6 6 6 6 6 6 5 5 5 4 5 5 4 4 4 4 3 2 3 5 5 4 3 3 3 3 3
3 3 3 3 3 4 4 4 4 4 5 5 5 5 6 5 5 5 3 4 3 4 4 4 4 4 5 4 6 5 4 3 3 3 3 3 3 3 3 3 3 3 3
3 3 3 3 3 4 4 3 4 4 4 4 4 5 5 5 5 5 2 3 2 4 5 4 3 2 4 8 8 7 5 5 5 4 4 4 4 4 4 4 4 4 3
Wind_Direction
164 160 164 156 152 149 151 156 160 152 159 157 167 169 164 161 129 123 102 106 84 65 49 33 31 309 343 329 312 0 231 218 186 174 119 87 95 104 109 100 99 96 102
167 165 169 165 161 159 161 164 168 165 171 164 167 175 155 146 130 104 103 88 81 51 62 78 329 33 350 3 323 268 276 259 195 182 172 135 69 60 82 87 86 83 83
173 171 175 173 167 166 171 174 173 168 173 166 175 165 139 147 143 132 116 101 93 80 34 36 17 357 22 59 280 351 300 277 281 190 181 167 156 96 63 80 88 86 79
175 174 176 175 172 171 170 163 164 164 165 173 182 187 179 174 141 129 127 137 117 106 88 51 31 3 4 22 340 55 316 286 306 298 276 206 129 156 104 55 65 70 69
176 175 176 174 175 171 166 162 159 162 167 174 185 195 186 165 138 125 138 153 141 124 75 72 40 0 17 10 339 347 344 338 309 309 321 336 123 130 154 144 91 66 53
174 172 171 167 171 168 165 162 159 164 166 176 178 167 159 122 106 118 158 179 153 125 82 85 46 9 9 348 360 344 9 360 327 310 310 309 102 168 158 164 147 110 82
170 169 168 168 169 168 166 159 159 165 168 171 172 167 173 164 158 175 163 206 108 110 85 60 49 26 8 11 16 3 13 7 330 302 300 299 273 160 143 147 146 123 121
170 169 169 169 170 170 162 158 161 166 168 167 168 169 173 173 162 171 158 93 84 86 89 86 66 35 15 15 14 14 20 22 353 345 4 344 351 108 143 150 142 138 122
171 171 171 171 170 168 163 159 158 161 163 162 160 159 156 161 158 140 129 52 55 99 79 72 77 48 24 14 18 32 28 21 21 21 34 26 10 60 111 146 157 148 142
170 172 171 171 168 167 161 156 156 160 163 167 172 167 165 159 156 141 126 104 70 50 56 53 60 52 36 29 39 44 42 43 33 38 48 32 24 41 62 139 124 110 130
167 167 167 168 165 165 163 159 157 162 166 165 163 162 159 159 159 154 140 125 112 88 76 58 64 64 51 48 51 54 56 53 40 35 42 35 28 24 32 56 89 106 116
164 162 163 162 163 166 165 163 164 168 168 164 162 162 154 156 159 154 148 147 135 122 106 90 62 69 65 58 55 51 56 55 48 44 39 36 43 40 39 58 79 104 120
158 160 159 159 162 163 161 163 167 169 167 164 163 160 160 158 158 152 150 145 135 126 116 106 92 68 62 65 63 64 60 59 52 47 44 39 41 41 48 68 84 102 118
149 153 154 156 157 156 155 161 167 165 165 163 163 163 164 161 160 153 151 149 145 141 135 125 110 97 74 60 57 74 72 70 65 57 52 45 41 37 49 76 84 103 114
144 142 147 150 153 151 153 160 161 158 161 159 163 162 157 154 152 154 152 148 152 145 136 124 115 122 109 69 48 75 95 79 76 70 66 66 69 61 56 71 74 104 124
143 147 151 149 152 154 158 156 156 155 154 158 161 157 157 156 156 154 151 149 148 140 140 131 114 91 83 62 49 37 82 80 77 76 84 96 80 73 79 83 82 86 108
145 152 151 148 150 154 154 156 154 154 157 160 160 158 158 157 161 163 155 156 154 141 133 122 107 95 77 58 49 33 71 88 79 68 51 71 75 73 77 93 96 78 75
142 144 151 150 152 153 153 153 156 157 160 160 161 161 161 163 163 159 156 154 146 142 141 132 128 123 104 65 44 17 91 99 83 70 65 79 66 40 41 99 94 88 64
128 134 148 157 151 153 155 153 158 159 161 163 165 165 164 164 165 164 160 154 151 152 155 149 145 134 121 88 42 10 141 127 109 87 62 73 74 43 36 84 96 96 96
118 122 119 125 135 146 150 155 159 163 169 169 169 165 163 166 167 164 160 156 156 161 164 154 153 145 142 142 90 21 220 148 134 114 97 81 79 60 37 64 101 117 117
117 118 117 124 132 138 145 153 157 164 166 158 155 161 163 165 163 160 160 159 166 172 169 158 159 151 152 158 151 95 320 124 152 147 135 122 111 88 37 20 59 138 147
109 116 116 119 129 137 147 154 155 153 152 151 155 159 161 166 160 155 162 165 171 173 172 167 171 161 158 163 172 159 132 22 27 119 122 135 148 135 78 355 225 227 275
119 121 120 123 129 138 144 152 151 148 151 155 155 154 156 153 154 163 168 171 180 188 185 186 191 184 170 167 167 167 159 112 85 81 118 152 178 187 204 217 228 230 242
114 113 123 130 135 140 135 138 145 151 155 157 160 158 159 162 160 169 176 183 189 197 196 195 193 180 170 167 170 176 172 163 160 153 155 182 208 235 238 216 216 228 243
109 116 127 134 136 127 129 139 147 153 157 161 164 166 170 171 165 168 177 181 178 184 195 202 194 183 179 178 166 170 179 186 170 167 177 200 207 207 211 213 218 228 237
108 112 120 124 131 136 132 130 141 152 163 170 175 181 181 176 182 175 157 52 122 128 127 129 145 144 155 161 164 170 171 173 168 186 209 213 215 216 213 217 218 218 227
Height
1524 1527 1529 1532 1533 1535 1537 1538 1539 1541 1542 1543 1544 1544 1545 1545 1545 1545 1544 1544 1545 1545 1545 1545 1546 1546 1546 1546 1547 1547 1547 1547 1548 1548 1549 1549 1550 1550 1550 1551 1551 1552 1552
1521 1524 1528 1530 1532 1534 1535 1537 1538 1540 1541 1542 1543 1544 1544 1545 1545 1545 1545 1545 1545 1545 1546 1545 1546 1546 1546 1546 1546 1546 1547 1547 1547 1548 1548 1549 1550 1550 1550 1550 1550 1550 1550
1517 1521 1525 1528 1531 1532 1534 1536 1537 1539 1540 1542 1543 1544 1544 1544 1545 1545 1545 1545 1545 1546 1546 1546 1546 1546 1546 1546 1546 1546 1546 1546 1546 1547 1548 1548 1548 1549 1549 1549 1549 1549 1549
1513 1518 1522 1526 1528 1531 1533 1535 1536 1538 1539 1541 1542 1543 1543 1544 1545 1545 1545 1545 1545 1545 1545 1545 1545 1545 1545 1545 1545 1545 1545 1545 1545 1546 1546 1547 1546 1547 1548 1549 1549 1549 1549
1509 1514 1519 1523 1526 1529 1531 1533 1535 1537 1538 1539 1541 1542 1543 1544 1545 1545 1546 1546 1546 1545 1545 1545 1545 1545 1545 1544 1544 1544 1544 1544 1544 1544 1544 1545 1545 1545 1546 1547 1548 1548 1548
1505 1511 1516 1520 1524 1527 1529 1531 1533 1535 1537 1539 1540 1541 1542 1543 1544 1545 1545 1546 1546 1545 1545 1545 1544 1544 1544 1544 1543 1543 1543 1542 1542 1543 1543 1543 1544 1544 1544 1545 1546 1547 1547
1502 1508 1513 1517 1521 1525 1528 1530 1532 1534 1536 1537 1539 1540 1541 1542 1543 1544 1545 1545 1546 1545 1544 1544 1544 1543 1543 1543 1543 1542 1542 1542 1541 1541 1542 1542 1542 1542 1543 1543 1544 1545 1547
1500 1505 1510 1515 1519 1523 1526 1528 1530 1532 1534 1536 1538 1539 1541 1542 1542 1543 1544 1544 1545 1544 1544 1543 1543 1542 1542 1542 1541 1541 1541 1540 1540 1540 1540 1541 1541 1541 1541 1542 1542 1543 1545
1497 1503 1508 1512 1517 1520 1524 1526 1528 1531 1533 1535 1537 1538 1540 1541 1542 1543 1543 1543 1544 1544 1543 1543 1542 1542 1542 1541 1541 1540 1540 1540 1539 1539 1539 1540 1540 1540 1540 1541 1541 1542 1543
1495 1500 1505 1510 1514 1518 1522 1525 1527 1529 1532 1534 1536 1537 1538 1540 1541 1541 1542 1542 1543 1543 1543 1543 1542 1542 1541 1541 1540 1540 1539 1539 1539 1539 1539 1538 1539 1539 1539 1540 1540 1540 1541
1493 1498 1503 1508 1512 1516 1520 1523 1525 1528 1530 1532 1534 1536 1537 1539 1539 1540 1541 1541 1542 1542 1542 1542 1542 1541 1541 1541 1540 1540 1539 1539 1538 1538 1538 1538 1538 1538 1538 1539 1539 1539 1540
1491 1496 1501 1505 1510 1514 1518 1521 1523 1526 1529 1531 1533 1535 1536 1537 1538 1539 1540 1541 1541 1541 1541 1542 1542 1541 1541 1540 1540 1539 1539 1538 1538 1538 1537 1537 1537 1537 1537 1538 1538 1538 1539
1490 1494 1498 1503 1507 1512 1515 1518 1521 1524 1527 1529 1531 1533 1535 1536 1537 1538 1539 1540 1540 1540 1541 1541 1541 1541 1541 1541 1540 1539 1539 1538 1538 1537 1537 1537 1536 1536 1537 1537 1537 1538 1539
1490 1493 1497 1501 1505 1509 1513 1516 1520 1522 1525 1527 1529 1531 1533 1534 1536 1537 1538 1539 1539 1539 1540 1540 1540 1540 1540 1540 1540 1539 1539 1538 1538 1537 1537 1536 1536 1536 1536 1536 1537 1537 1538
1489 1492 1496 1500 1504 1507 1511 1515 1518 1520 1523 1525 1527 1529 1531 1533 1535 1536 1537 1538 1539 1539 1539 1539 1539 1540 1540 1540 1540 1539 1539 1538 1538 1537 1536 1536 1536 1536 1536 1536 1536 1537 1538
1488 1492 1495 1498 1502 1505 1509 1512 1515 1518 1521 1523 1525 1527 1529 1531 1533 1534 1535 1536 1537 1538 1538 1539 1539 1539 1539 1539 1539 1539 1538 1538 1538 1537 1537 1536 1536 1536 1536 1536 1536 1536 1537
1488 1491 1494 1497 1500 1503 1506 1509 1512 1515 1518 1521 1523 1525 1527 1529 1530 1532 1534 1535 1536 1537 1537 1538 1538 1538 1538 1539 1538 1538 1538 1538 1538 1537 1537 1537 1536 1536 1535 1535 1536 1536 1536
1487 1491 1493 1496 1499 1502 1505 1508 1511 1514 1516 1518 1521 1523 1524 1526 1528 1530 1531 1533 1534 1535 1536 1536 1537 1537 1538 1538 1538 1538 1538 1537 1537 1537 1537 1536 1536 1536 1536 1535 1535 1535 1536
1487 1490 1492 1495 1498 1500 1503 1506 1509 1512 1514 1516 1518 1520 1522 1524 1526 1528 1529 1530 1532 1533 1534 1535 1535 1536 1537 1537 1537 1537 1537 1537 1537 1537 1536 1536 1536 1536 1536 1535 1535 1535 1535
1486 1489 1491 1494 1496 1499 1501 1504 1507 1510 1512 1514 1516 1518 1520 1522 1523 1525 1527 1528 1530 1531 1533 1534 1534 1535 1535 1536 1536 1536 1536 1536 1536 1536 1536 1536 1536 1536 1535 1535 1535 1534 1535
1487 1489 1491 1493 1495 1497 1500 1503 1505 1507 1510 1512 1514 1516 1517 1518 1520 1522 1524 1526 1528 1529 1531 1532 1533 1534 1534 1535 1535 1535 1535 1535 1535 1535 1535 1535 1535 1535 1535 1535 1535 1535 1535
1487 1489 1490 1492 1494 1496 1498 1501 1502 1505 1508 1509 1511 1513 1515 1516 1518 1520 1522 1524 1526 1527 1529 1530 1531 1532 1533 1533 1534 1534 1534 1534 1534 1534 1534 1534 1534 1534 1534 1534 1534 1534 1534
1487 1489 1490 1492 1494 1495 1497 1499 1501 1503 1505 1507 1509 1511 1513 1514 1516 1518 1520 1522 1524 1526 1527 1528 1529 1530 1530 1531 1532 1532 1533 1533 1533 1533 1533 1533 1533 1533 1533 1533 1533 1533 1533
1486 1488 1490 1491 1493 1495 1496 1498 1499 1501 1503 1505 1507 1509 1511 1512 1514 1516 1518 1519 1521 1523 1524 1525 1526 1527 1528 1528 1529 1529 1530 1530 1530 1531 1531 1532 1532 1532 1531 1531 1532 1532 1532
1486 1488 1489 1491 1492 1494 1495 1496 1498 1499 1501 1503 1505 1507 1509 1510 1512 1513 1515 1516 1517 1518 1521 1522 1523 1524 1524 1525 1526 1527 1527 1528 1528 1528 1529 1529 1530 1530 1530 1529 1530 1530 1530
1485 1487 1489 1490 1491 1492 1494 1495 1496 1497 1499 1501 1503 1505 1507 1508 1509 1510 1512 1513 1515 1516 1517 1519 1520 1521 1522 1523 1524 1524 1525 1525 1526 1526 1526 1526 1527 1527 1527 1527 1527 1527 1527